Weather in Amurskoye

Russia / Amur Oblast     50°44′29″N   128°44′13″E
temp.,
°C
wind,
m/s
gust,
m/s
humid.,
%
clouds,
%
prec.,
mm/h
press.,
hPa
HPBL,
m
5 december, sun
sun500:00−15s611885 0.0 1015245
03:00−15sse6119391 0.0 1014228
06:00−15sse5119559 0.0 1013198
09:00−15sse5119487 0.0 1014219
12:00−10s51092100 0.0 1011327
15:00−8s51090100 0.0 1010435
18:00−10sse4996100 0.1 1011215
21:00−14ssw229872 0.1 101235
6 december, mon
mon600:00−18w2210098 0.0 101337
03:00−20w2210099 0.1 101529
06:00−21w24100100 0.0 101646
09:00−19wsw229828 0.0 101716
12:00−13w389145 0.0 1018216
15:00−11sw35935 0.0 101976
18:00−14wsw47875 0.0 102172
21:00−16wsw35857 0.0 102358
7 december, tue
tue700:00−15sw2289100 0.0 102423
03:00−14s349093 0.0 102346
06:00−16s369273 0.0 102473
09:00−16s3694100 0.0 102580
12:00−10s3489100 0.0 1024164
15:00−10sse34945 0.0 102470
18:00−15sse359731 0.0 102652
21:00−17s229845 0.0 102723
8 december, wed
wed800:00−18s2210067 0.0 102814
03:00−18s229941 0.0 102924
06:00−18s239829 0.0 103032
09:00−15sse479418 0.0 103094
12:00−10s510905 0.0 1029211
15:00−8s511895 0.0 1026227
18:00−8s613905 0.0 1026254
21:00−7s7168867 0.0 1024323
9 december, thu
thu900:00−7s71782100 0.0 1022384
03:00−6s7168297 0.0 1020390
06:00−5s71588100 0.1 1019443
09:00−4s61488100 0.4 1017526
12:00−3ssw71392100 0.5 1016730
15:00−3ssw61195100 0.7 1015531
18:00−3wsw51097100 1.6 1017526
21:00−7nw510885 2.1 1020293